UAL1RD KRDU-KBWI

Flight info

Callsign UAL1RD
Flight time N/A
Altitude 27000
Route BEXGO5 BOUSY THHMP RAVNN8
Aircraft B739/M-SDE2E3FGHIRWXY/LB1

Departure

Time 2026-05-07 00:26
Airport Raleigh-Durham International Airport (KRDU)

Arrival

Time N/A
Airport Baltimore/Washington International Thurgood Marshall Airport (KBWI)
Time Latitude Longitude Altitude Speed Heading
2026-05-06 23:10 35.87637 -78.79554 381 ft 0 kts 123°
2026-05-07 00:05 35.87640 -78.79560 381 ft 2 kts 121°
2026-05-07 00:05 35.87648 -78.79578 381 ft 2 kts 117°
2026-05-07 00:05 35.87655 -78.79597 381 ft 2 kts 110°
2026-05-07 00:05 35.87659 -78.79616 380 ft 2 kts 95°
2026-05-07 00:06 35.87658 -78.79636 380 ft 2 kts 65°
2026-05-07 00:06 35.87650 -78.79652 379 ft 1 kts 46°
2026-05-07 00:06 35.87647 -78.79656 379 ft 0 kts 46°
2026-05-07 00:12 35.87668 -78.79629 380 ft 8 kts 46°
2026-05-07 00:12 35.87718 -78.79565 382 ft 12 kts 46°
2026-05-07 00:12 35.87787 -78.79481 384 ft 15 kts 44°
2026-05-07 00:12 35.87859 -78.79394 388 ft 14 kts 45°
2026-05-07 00:13 35.87931 -78.79306 389 ft 16 kts 45°
2026-05-07 00:13 35.88013 -78.79203 390 ft 17 kts 45°
2026-05-07 00:13 35.88092 -78.79104 392 ft 16 kts 45°
2026-05-07 00:13 35.88168 -78.79005 391 ft 16 kts 45°
2026-05-07 00:14 35.88243 -78.78913 392 ft 15 kts 45°
2026-05-07 00:14 35.88315 -78.78825 388 ft 14 kts 45°
2026-05-07 00:14 35.88383 -78.78741 395 ft 14 kts 45°
2026-05-07 00:14 35.88448 -78.78659 397 ft 13 kts 45°
2026-05-07 00:15 35.88512 -78.78581 398 ft 13 kts 45°
2026-05-07 00:15 35.88573 -78.78505 401 ft 12 kts 45°
2026-05-07 00:15 35.88634 -78.78431 404 ft 12 kts 45°
2026-05-07 00:15 35.88693 -78.78359 405 ft 12 kts 45°
2026-05-07 00:16 35.88749 -78.78288 404 ft 11 kts 45°
2026-05-07 00:16 35.88805 -78.78220 404 ft 11 kts 45°
2026-05-07 00:16 35.88858 -78.78154 406 ft 11 kts 44°
2026-05-07 00:16 35.88910 -78.78089 406 ft 11 kts 46°
2026-05-07 00:17 35.88963 -78.78019 406 ft 12 kts 51°
2026-05-07 00:17 35.88993 -78.77929 407 ft 11 kts 73°
2026-05-07 00:17 35.89037 -78.77853 408 ft 11 kts 45°
2026-05-07 00:17 35.89090 -78.77787 408 ft 11 kts 45°
2026-05-07 00:18 35.89142 -78.77723 412 ft 10 kts 45°
2026-05-07 00:18 35.89193 -78.77662 406 ft 10 kts 37°
2026-05-07 00:18 35.89240 -78.77657 414 ft 7 kts 340°
2026-05-07 00:18 35.89256 -78.77672 416 ft 0 kts 317°
2026-05-07 00:20 35.89257 -78.77674 407 ft 3 kts 317°
2026-05-07 00:20 35.89289 -78.77712 414 ft 7 kts 316°
2026-05-07 00:20 35.89296 -78.77721 416 ft 0 kts 314°
2026-05-07 00:24 35.89317 -78.77746 418 ft 12 kts 315°
2026-05-07 00:24 35.89343 -78.77855 415 ft 15 kts 240°
2026-05-07 00:25 35.89246 -78.77977 409 ft 38 kts 225°
2026-05-07 00:25 35.88875 -78.78432 404 ft 112 kts 225°
2026-05-07 00:25 35.88175 -78.79291 390 ft 170 kts 225°
2026-05-07 00:25 35.87260 -78.80432 661 ft 198 kts 226°
2026-05-07 00:26 35.86285 -78.81716 1297 ft 212 kts 228°
2026-05-07 00:26 35.85256 -78.83136 1803 ft 231 kts 230°
2026-05-07 00:26 35.84378 -78.84821 2476 ft 237 kts 249°
2026-05-07 00:26 35.84264 -78.86891 2715 ft 262 kts 282°
2026-05-07 00:27 35.85146 -78.88966 2992 ft 278 kts 305°